Everett, WA

11:15 AM PDT on October 19, 2017 (GMT -0700)
Snohomish County

Weather History for KPAE - September, 2013

Change the Weather History Date:

Sunday, September 29, 2013

  Actual Average Record
Temperature  
Mean Temperature 52 °F -  
Max Temperature 54 °F 66 °F 79 °F (2011)
Min Temperature 51 °F 46 °F 34 °F (1950)
Degree Days  
Heating Degree Days 12    
Growing Degree Days 2 (Base 50)    
Moisture  
Dew Point 47 °F    
Average Humidity 82    
Maximum Humidity 89    
Minimum Humidity 74    
Precipitation  
Precipitation 0.56 in - - ()
Sea Level Pressure  
Sea Level Pressure 29.46 in    
Wind  
Wind Speed 19 mph (South)    
Max Wind Speed 29 mph    
Max Gust Speed 40 mph    
Visibility 9 miles    
Events Rain    
Averages and records for this station are not official NWS values.
T = Trace of Precipitation, MM = Missing Value Source: NWS Daily Summary

Daily Weather History Graph

Daily Weather History Graph

Search for Another Location

Airport or City:

Trip Planner

Search our weather history database for the weather conditions in past years. The results will help you decide how hot, cold, wet, or windy it might be!

Date:

Astronomy

Sep. 29, 2013 Rise Set
Actual Time 7:05 AM PDT 6:51 PM PDT
Civil Twilight 6:35 AM PDT 7:22 PM PDT
Nautical Twilight 5:59 AM PDT 7:58 PM PDT
Astronomical Twilight 5:22 AM PDT 8:35 PM PDT
Moon 1:32 AM PDT (9/29) 4:08 PM PDT (9/29)
Length of Visible Light 12h 47m
Length of Day
11h 45m
Waning Crescent, 26% of the Moon is Illuminated
Sep 29
Waning Crescent
Oct 4
New
Oct 11
First Quarter
Oct 18
Full
Oct 26
Last Quarter

Hourly Weather History & Observations

Time (PDT) Temp. Dew Point Humidity Pressure Visibility Wind Dir Wind Speed Gust Speed Precip Events Conditions
12:07 AM 51.8 °F 46.4 °F 82% 29.48 in 10.0 mi South 17.3 mph 33.4 mph N/A   Mostly Cloudy
12:15 AM 51.8 °F 46.4 °F 82% 29.48 in 10.0 mi South 17.3 mph 25.3 mph N/A   Overcast
12:53 AM 52.0 °F 48.0 °F 86% 29.49 in 10.0 mi South 17.3 mph 24.2 mph 0.00 in Rain Light Rain
1:53 AM 52.0 °F 46.9 °F 83% 29.49 in 10.0 mi South 18.4 mph 32.2 mph 0.09 in Rain Light Rain
2:53 AM 52.0 °F 48.0 °F 86% 29.50 in 9.0 mi South 21.9 mph 28.8 mph 0.04 in Rain Light Rain
3:53 AM 52.0 °F 48.0 °F 86% 29.50 in 10.0 mi South 18.4 mph 31.1 mph 0.03 in Rain Light Rain
4:27 AM 51.8 °F 46.4 °F 82% 29.50 in 10.0 mi South 21.9 mph 29.9 mph 0.00 in   Overcast
4:53 AM 52.0 °F 46.9 °F 83% 29.50 in 10.0 mi South 25.3 mph 34.5 mph 0.00 in   Mostly Cloudy
5:01 AM 51.8 °F 46.4 °F 82% 29.50 in 10.0 mi South 17.3 mph 34.5 mph N/A   Mostly Cloudy
5:53 AM 52.0 °F 46.9 °F 83% 29.52 in 10.0 mi South 21.9 mph 29.9 mph N/A   Overcast
6:45 AM 51.8 °F 48.2 °F 88% 29.52 in 4.0 mi South 18.4 mph - 0.06 in Rain Rain
6:53 AM 52.0 °F 48.0 °F 86% 29.52 in 7.0 mi South 18.4 mph 24.2 mph 0.07 in Rain Light Rain
7:53 AM 52.0 °F 48.0 °F 86% 29.53 in 5.0 mi South 24.2 mph 28.8 mph 0.01 in Rain Light Rain
7:56 AM 51.8 °F 48.2 °F 88% 29.53 in 4.0 mi South 20.7 mph 28.8 mph 0.00 in Rain Light Rain
8:53 AM 52.0 °F 48.0 °F 86% 29.54 in 10.0 mi South 20.7 mph 26.5 mph 0.04 in   Overcast
9:00 AM 53.6 °F 48.2 °F 82% 29.54 in 10.0 mi South 15.0 mph 26.5 mph N/A   Overcast
9:53 AM 54.0 °F 48.0 °F 80% 29.54 in 10.0 mi South 23.0 mph 32.2 mph 0.00 in   Mostly Cloudy
10:24 AM 53.6 °F 46.4 °F 77% 29.54 in 10.0 mi South 17.3 mph 31.1 mph N/A   Mostly Cloudy
10:48 AM 53.6 °F 46.4 °F 77% 29.54 in 10.0 mi South 17.3 mph 35.7 mph N/A   Mostly Cloudy
10:53 AM 54.0 °F 46.9 °F 77% 29.54 in 10.0 mi SSE 24.2 mph 31.1 mph N/A   Mostly Cloudy
11:53 AM 54.0 °F 46.9 °F 77% 29.55 in 10.0 mi South 20.7 mph 32.2 mph N/A   Mostly Cloudy
12:53 PM 53.1 °F 48.0 °F 83% 29.54 in 10.0 mi SSE 24.2 mph 31.1 mph 0.00 in Rain Light Rain
1:43 PM 53.6 °F 48.2 °F 82% 29.54 in 9.0 mi South 16.1 mph 29.9 mph 0.01 in Rain Light Rain
1:53 PM 52.0 °F 48.0 °F 86% 29.54 in 7.0 mi South 17.3 mph 31.1 mph 0.01 in Rain Light Rain
2:53 PM 52.0 °F 48.0 °F 86% 29.51 in 10.0 mi SSE 13.8 mph - 0.02 in Rain Light Rain
3:53 PM 52.0 °F 46.9 °F 83% 29.46 in 9.0 mi SE 12.7 mph 28.8 mph 0.00 in Rain Light Rain
4:00 PM 51.8 °F 46.4 °F 82% 29.45 in 9.0 mi SSE 13.8 mph 28.8 mph 0.00 in Rain Light Rain
4:53 PM 52.0 °F 46.0 °F 80% 29.41 in 9.0 mi SSE 15.0 mph 25.3 mph 0.00 in Rain Light Rain
5:53 PM 52.0 °F 46.0 °F 80% 29.32 in 10.0 mi SE 8.1 mph 19.6 mph 0.01 in Rain Light Rain
6:53 PM 53.1 °F 46.0 °F 77% 29.24 in 10.0 mi SSE 11.5 mph 21.9 mph 0.02 in Rain Light Rain
7:53 PM 53.1 °F 46.0 °F 77% 29.16 in 6.0 mi SSE 18.4 mph 26.5 mph 0.04 in Rain Light Rain
8:53 PM 53.1 °F 50.0 °F 89% 29.23 in 4.0 mi South 16.1 mph 25.3 mph 0.14 in Rain Rain
9:53 PM 53.1 °F 48.9 °F 86% 29.26 in 10.0 mi South 28.8 mph 35.7 mph 0.04 in Rain Light Rain
10:53 PM 52.0 °F 44.1 °F 74% 29.32 in 10.0 mi SSW 27.6 mph 36.8 mph N/A   Partly Cloudy
11:53 PM 51.1 °F 44.1 °F 77% 29.40 in 10.0 mi SSW 25.3 mph 40.3 mph N/A   Scattered Clouds